Home   Weather   Fukushima   Past weeks

Flag for Japan Past Weather in Fukushima, Japan — Yesterday and Last 2 Weeks

Now
69 °F

Mild.


Feels Like: 69 °F
Forecast: 63 / 76 °F
Wind: 1 mph from West

Location: Wakamatsu

Current Time: Sep 26, 2016 at 2:29:50 AM

Latest Report: Sep 26, 2016 at 1:00 AM


Visibility: 13 mi

Pressure: 30.10 "Hg

Humidity: 93%

Dew Point: 67 °F

Location of FukushimaLocation

Past Weather in Fukushima — Graph

°F

Fukushima Temperature Yesterday

Maximum temperature yesterday: 82 °F (at 3:00 PM)
Minimum temperature yesterday: 62 °F (at 5:00 AM)
Average temperature yesterday: 71 °F

High & Low Weather Summary for the Past Weeks

 TemperatureHumidityPressure
High82 °F (Sep 15, 1:00 PM)100% (Sep 18, 3:00 AM)30.19 "Hg (Sep 18, 3:00 AM)
Low62 °F (Sep 21, 3:00 AM)52% (Sep 15, 12:00 PM)29.75 "Hg (Sep 18, 3:00 PM)
Average70 °F84%30.01 "Hg
* Reported Sep 11 1:00 AM — Sep 26 1:00 AM, Fukushima, Weather by CustomWeather, © 2016

Note: Actual official high and low records may vary slightly from our data, if they occured in-between our weather recording intervals... More about our weather records

Advertising

Fukushima Weather History for the Previous 24 Hours

Scroll right to see more
 ConditionsComfort  
Time TempWeatherWind HumidityBarometerVisibility
1:00 AM
Mon, Sep 26
69 °FMild.1 mph93%30.10 "Hg12 mi
12:00 AM69 °FMild.2 mph93%30.11 "Hg12 mi
11:00 PM
Sun, Sep 25
69 °FMild.1 mph93%30.11 "Hg12 mi
10:00 PM71 °FMild.1 mph89%30.09 "Hg12 mi
9:00 PM70 °FMild.1 mph91%30.09 "Hg12 mi
8:00 PM72 °FMild.2 mph89%30.09 "Hg12 mi
7:00 PM73 °FMild.2 mph87%30.07 "Hg12 mi
6:00 PM75 °FMild.3 mph83%30.05 "Hg12 mi
5:00 PM79 °FWarm.3 mph64%30.03 "Hg12 mi
4:00 PM82 °FWarm.3 mph57%30.01 "Hg12 mi
3:00 PM82 °FWarm.3 mph57%30.01 "Hg12 mi
2:00 PM81 °FWarm.3 mph57%30.02 "Hg12 mi
1:00 PM80 °FWarm.2 mph64%30.04 "Hg12 mi
12:00 PM76 °FMild.2 mph71%30.08 "Hg12 mi
11:00 AM75 °FMild.3 mph73%30.10 "Hg12 mi
10:00 AM72 °FMild.5 mph79%30.12 "Hg12 mi
9:00 AM70 °FMild.5 mph84%30.13 "Hg12 mi
8:00 AM66 °FMild.1 mph94%30.12 "Hg12 mi
7:00 AM64 °FMild.1 mph100%30.13 "Hg8 mi
6:00 AM63 °FDuststorm.2 mph100%30.12 "Hg0 mi
5:00 AM62 °FFog.1 mph100%30.11 "Hg6 mi
4:00 AM63 °FMild.2 mph98%30.09 "Hg11 mi
3:00 AM64 °FMild.3 mph98%30.09 "Hg12 mi
2:00 AM63 °FMild.1 mph100%30.08 "Hg12 mi
Weather by CustomWeather, © 2016

See weather overviewHow to use our weather pages